Regional Weather Roundup
Issued by NWS

Home | Current Version | Previous Version | Graphics & Text | Print | Product List | Glossary On
Versions: 1 2 3 4 5 6 7 8 9 10 11 12 13 14 15 16 17 18 19 20 21 22 23 24 25 26 27 28 29 30 31 32 33 34 35 36 37 38 39 40 41 42 43 44 45 46 47 48 49 50
000
ASUS43 KMPX 291801
RWRMN
WEATHER ROUNDUP FOR MINNESOTA
NATIONAL WEATHER SERVICE TWIN CITIES/CHANHASSEN MN
100 PM CDT FRI APR 29 2016


NOTE: "FAIR" INDICATES FEW OR NO CLOUDS BELOW 12,000 FEET WITH NO
SIGNIFICANT WEATHER AND/OR OBSTRUCTIONS TO VISIBILITY. N/A MEANS
CURRENT SKY AND/OR WEATHER CONDITIONS ARE NOT AVAILABLE.

MNZ060>063-068>070-291900-
   Twin Cities Metro

CITY           SKY/WX    TMP DP  RH WIND       PRES   REMARKS
TWIN CITIES    SUNNY     54  34  46 NE12      30.14F
6HR MIN TEMP:  37; 6HR MAX TEMP:  55;

ST PAUL        SUNNY     52  35  52 N3        30.15F
BLAINE         SUNNY     55  36  47 N13G20    30.15S
EDEN PRAIRIE   SUNNY     54  34  46 NE9       30.13S
6HR MIN TEMP:  37; 6HR MAX TEMP:  54;

SOUTH ST PAUL  SUNNY     53  36  52 N8        30.14S
LAKE ELMO      FAIR      52  37  58 NE9       30.15F
$$
MNZ001>005-007-008-013>017-022>024-027-028-291900-
   Northwest Minnesota

CITY           SKY/WX    TMP DP  RH WIND       PRES   REMARKS
BEMIDJI        SUNNY     53  31  43 NE12      30.17F
HALLOCK        SUNNY     57  27  30 E3        30.22F
ROSEAU         SUNNY     54  37  54 E9        30.23F
WARROAD        SUNNY     48  36  61 E8        30.25F
THIEF RVR FALL SUNNY     55  30  38 N14       30.22S
CROOKSTON      SUNNY     55  32  41 NE12      30.20F
FOSSTON        SUNNY     55  30  38 NE13G20   30.19F
DETROIT LAKES  SUNNY     55  32  41 CALM      30.14F
MOORHEAD       SUNNY     57  34  41 NE7G16    30.16S
PARK RAPIDS    SUNNY     56  29  35 VRB6      30.13F
MAHNOMEN       FAIR      55  32  40 NE9       30.17F
$$
MNZ006-009>011-018-025>026-291900-
   North Central Minnesota

CITY           SKY/WX    TMP DP  RH WIND       PRES   REMARKS
BAUDETTE       MOSUNNY   57  30  35 E8        30.21F
FLAG ISLAND    SUNNY     48  34  57 N12       30.22F
INTL FALLS     MOSUNNY   53  31  42 VRB7      30.21F
6HR MIN TEMP:  36; 6HR MAX TEMP:  53;

WASKISH        SUNNY     55  34  44 NE5       30.19F
BIG FORK       MOSUNNY   57  30  35 CALM      30.17F
LONGVILLE      SUNNY     57  28  33 N6        30.15F
GRAND RAPIDS   PTSUNNY   54  28  37 N9        30.17F
CRANE LAKE     CLOUDY    48  30  49 N5        30.22F
ORR            PTSUNNY   54  27  35 CALM      30.16F
COOK           MOSUNNY   54  30  40 NE7       30.19F
WALKER         FAIR      52  30  43 E7        30.16F
$$
MNZ012-019>021-037-291900-
   Northeast Minnesota

CITY           SKY/WX    TMP DP  RH WIND       PRES   REMARKS
DULUTH         MOSUNNY   50  30  46 E13       30.17F
6HR MIN TEMP:  34; 6HR MAX TEMP:  50;

ELY            CLOUDY    48  27  43 N7        30.19F
HIBBING        CLOUDY    51  28  41 NE7       30.17F
EVELETH        MOSUNNY   52  30  43 E7        30.18F
DULUTH HARBOR  SUNNY     43  34  70 N6        30.21F
TWO HARBORS    SUNNY     52  37  58 E9        30.17S
SILVER BAY     CLOUDY    48  30  49 E5        30.17S
GRAND MARAIS     N/A     41  31  67 S3        30.21S
G MARAIS ARPRT CLOUDY    46  27  46 N10G16    30.17S
$$
MNZ029>031-032-039>041-046>048-054>057-064-291900-
   West Central Minnesota

CITY           SKY/WX    TMP DP  RH WIND       PRES   REMARKS
FERGUS FALLS   MOSUNNY   55  37  50 E8        30.12F
WHEATON        SUNNY     57  37  47 E8        30.15F
MORRIS         SUNNY     55  41  58 NE6       30.13F
ALEXANDRIA     MOSUNNY   56  35  45 N10       30.14F
ELBOW LAKE     FAIR      53  37  54 N3        30.15F
WADENA         MOSUNNY   55  34  44 NE6       30.13F
GLENWOOD       MOSUNNY   54  37  54 N12G17    30.13F
APPLETON       SUNNY     55  36  47 NE9G18    30.13F
BENSON         SUNNY     55  37  50 E8        30.15S
ORTONVILLE     MOSUNNY   55  39  54 NE8       30.14F
MADISON        MOSUNNY   54  39  58 E9G16     30.15S
WILLMAR        FAIR      55  41  58 NE10G18   30.15F
$$
MNZ033>034-036-042>043-049>051-058-059-291900-
   Central Minnesota

CITY           SKY/WX    TMP DP  RH WIND       PRES   REMARKS
ST CLOUD       SUNNY     54  35  48 VRB6      30.14F
6HR MIN TEMP:  32; 6HR MAX TEMP:  54;

SAUK CENTRE    MOCLDY    53  37  55 CALM      30.13F
PAYNESVILLE    SUNNY     54  36  50 NE13      30.14F
AITKIN         SUNNY     57  25  28 NE8       30.15S
PINE RIVER     SUNNY     57  34  41 NE8       30.17F
BRAINERD       SUNNY     56  30  37 NE9       30.15F
STAPLES        MOSUNNY   55  30  38 N6        30.14F
LONG PRAIRIE   FAIR      54  34  47 N10       30.14F
LITTLE FALLS   SUNNY     55  32  41 N6G16     30.14F
LITCHFIELD     SUNNY     55  37  50 NE12      30.14
BUFFALO        SUNNY     54  35  49 NE10      30.16S
MAPLE LAKE     SUNNY     54  38  56 NE15      30.15F
HUTCHINSON     SUNNY     54  40  59 NE13G18   30.15S
$$
MNZ037-044-045-052-053-291900-
   East Central Minnesota

CITY           SKY/WX    TMP DP  RH WIND       PRES   REMARKS
PRINCETON      SUNNY     55  36  47 N8G18     30.15S
MORA           SUNNY     54  30  40 NE10G20   30.16F
CAMBRIDGE      SUNNY     55  36  47 N10       30.14R
RUSH CITY      SUNNY     55  32  41 NE9G18    30.15S
MOOSE LAKE     SUNNY     55  30  38 NE10G17   30.15S
HINCKLEY       FAIR      54  32  43 N7        30.15S
CLOQUET        MOSUNNY   54  27  35 E10       30.16F
MCGREGOR       MOSUNNY   54  32  43 NE6       30.16F
$$
MNZ071>073-080-081-089-090-097-098-291900-
   Southwest Minnesota

CITY           SKY/WX    TMP DP  RH WIND       PRES   REMARKS
MONTEVIDEO     MOSUNNY   55  43  62 E9G16     30.16F
GRANITE FALLS  CLOUDY    54  41  62 NE12G17   30.16F
CANBY          CLOUDY    53  44  73 NE7       30.16F HAZE
MARSHALL       CLOUDY    49  40  71 NE10      30.15S
REDWOOD FALLS  PTSUNNY   52  38  58 NE10      30.14F
OLIVIA         MOSUNNY   54  39  58 E10G21    30.13F
PIPESTONE      CLOUDY    48  37  66 E10G18    30.13S
WINDOM         PTSUNNY   48  39  71 NE10      30.14F
WORTHINGTON    CLOUDY    46  37  71 NE17      30.13F
JACKSON        CLOUDY    48  37  66 NE13      30.14S
TRACY          CLOUDY    49  41  72 NE16      30.15S
SLAYTON        CLOUDY    44  40  83 NE14      30.15R
$$
MNZ065>067-074>077-082>085-091>093-291900-
   South Central Minnesota

CITY           SKY/WX    TMP DP  RH WIND       PRES   REMARKS
MANKATO        PTSUNNY   52  37  58 NE8G18    30.14S
NEW ULM        PTSUNNY   52  39  62 NE10      30.14S
ST JAMES       PTSUNNY   46  37  71 NE9       30.15F
FAIRMONT       PTSUNNY   48  37  66 NE10G16   30.13F
GLENCOE        SUNNY     53  42  66 NE6G17    30.14S
FARIBAULT      MOSUNNY   52  39  62 N6        30.14S
OWATONNA       PTSUNNY   52  39  62 NE10      30.13F
WASECA         MOSUNNY   52  39  62 NE9G20    30.14F
$$
MNZ078>079-086>088-094>096-291900-
   Southeast Minnesota

CITY           SKY/WX    TMP DP  RH WIND       PRES   REMARKS
ROCHESTER      CLOUDY    46  39  76 E6        30.15S
6HR MIN TEMP:  37; 6HR MAX TEMP:  46;

RED WING       MOSUNNY   55  36  47 E9        30.12F
STANTON        SUNNY     53  37  54 NE8       30.13F
DODGE CENTER   PTSUNNY   52  41  66 NE6       30.13S
WINONA         CLOUDY    48  39  71 NE3       30.16F
AUSTIN         CLOUDY    46  37  71 E14       30.14S
PRESTON        CLOUDY    45  36  72 NE7       30.15R
$$
ABBREVIATIONS USED IN REMARKS
   TC - TEMPERATURES IN CELSIUS
  WCI - WIND CHILL INDEX
   HX - HEAT INDEX
  VSB - VISIBILITY
$$




USA.gov is the U.S. government's official web portal to all federal, state and local government web resources and services.